Overview Statistics Trail Chart Weather Telemetry Raw packets
 

This is the latest recevied weather packets stored in our database for station/object MB7UKB-10. If no packets are shown the sender has not sent any weather packets the latest 10 day(s).

<< 1 2 3 4 5 6 7 >>
Time Temp. Humidity Pressure Rain* Wind** Luminosity Snow
1788569438 12.22° C 87% 1019.8 hPa 0 mm - - -
1788567639 12.78° C 85% 1019.7 hPa 0 mm - - -
1788565838 12.78° C 84% 1019.5 hPa 0 mm - - -
1788564038 13.33° C 82% 1019.5 hPa 0 mm - - -
1788562238 13.89° C 80% 1019.5 hPa 0 mm - - -
1788560439 14.44° C 78% 1019.2 hPa 0 mm - - -
1788558638 14.44° C 78% 1019 hPa 0 mm - - -
1788556838 15° C 76% 1018.8 hPa 0 mm - - -
1788555038 15° C 75% 1018.8 hPa 0 mm - - -
1788553238 15.56° C 72% 1018.6 hPa 0 mm - - -
1788551438 16.11° C 70% 1018.6 hPa 0 mm - - -
1788549638 16.67° C 69% 1018 hPa 0 mm - - -
1788547839 17.22° C 66% 1017.1 hPa 0 mm - - -
1788546039 17.78° C 64% 1016.7 hPa 0 mm - - -
1788544239 17.78° C 61% 1016.5 hPa 0 mm - - -
1788542439 18.33° C 57% 1016.4 hPa 0 mm - - -
1788540641 18.89° C 56% 1016.1 hPa 0 mm - - -
1788539434 18.89° C 57% 1016 hPa 0 mm - - -
1788537642 18.89° C 57% 1015.7 hPa 0 mm - - -
1788535854 19.44° C 54% 1015.5 hPa 0 mm - - -
1788532233 20° C 53% 1015.1 hPa 0 mm - - -
1788530433 19.44° C 55% 1015 hPa 0 mm - - -
1788528635 19.44° C 54% 1015 hPa 0 mm - - -
1788525035 19.44° C 61% 1014.4 hPa 0 mm - - -
1788523236 19.44° C 62% 1014.1 hPa 0 mm - - -

* Rain latest hour (hover to see other rain measurements)
** Current wind speed in m/s (hover to see current wind gust speed)